| time (UTC) | temp F | wind direction | speed MPH | gust MPH | rain 1hr in | rain 24hr in | rain mn in | humidity % | barometer mb |
| 20260506080154 | 31 | 302 | 0.0 | 10.0 | 0.00 | 0.00 | 0.00 | 59 | 1017.2 |
| 20260506073154 | 30 | 340 | 0.0 | 2.0 | 0.00 | 0.00 | 0.00 | 60 | 1017.2 |
| 20260506072755 | 29 | 227 | 1.0 | 5.0 | 0.00 | 0.00 | 0.00 | 62 | 1017.2 |
| 20260506072654 | 29 | 285 | 0.0 | 5.0 | 0.00 | 0.00 | 0.00 | 62 | 1017.2 |
| 20260506072154 | 29 | 285 | 2.0 | 7.0 | 0.00 | 0.00 | 0.00 | 62 | 1017.2 |
| 20260506071654 | 28 | 296 | 2.0 | 7.0 | 0.00 | 0.00 | 0.00 | 62 | 1017.2 |
| 20260506071154 | 28 | 291 | 4.0 | 5.0 | 0.00 | 0.00 | 0.00 | 63 | 1017.2 |
| 20260506070654 | 28 | 199 | 0.0 | 6.0 | 0.00 | 0.00 | 0.00 | 64 | 1017.1 |
| 20260506070555 | 28 | 306 | 0.0 | 6.0 | 0.00 | 0.00 | 0.00 | 64 | 1017.2 |
| 20260506070154 | 28 | 271 | 1.0 | 4.0 | 0.00 | 0.00 | 0.00 | 64 | 1017.2 |
| 20260506062154 | 25 | 305 | 6.0 | 7.0 | 0.00 | 0.00 | 0.00 | 71 | 1017.2 |
| 20260506061654 | 25 | 298 | 2.0 | 8.0 | 0.00 | 0.00 | 0.00 | 71 | 1017.2 |
| 20260506061154 | 25 | 316 | 5.0 | 7.0 | 0.00 | 0.00 | 0.00 | 72 | 1017.2 |
| 20260506061055 | 25 | 309 | 3.0 | 7.0 | 0.00 | 0.00 | 0.00 | 72 | 1017.2 |
| 20260506060654 | 24 | 278 | 0.0 | 4.0 | 0.00 | 0.00 | 0.00 | 73 | 1017.2 |
| 20260506060154 | 24 | 313 | 0.0 | 6.0 | 0.00 | 0.00 | 0.00 | 73 | 1017.2 |
| 20260506051154 | 22 | 316 | 2.0 | 7.0 | 0.00 | 0.00 | 0.00 | 82 | 1017.2 |
| 20260506050654 | 21 | 319 | 3.0 | 7.0 | 0.00 | 0.00 | 0.00 | 82 | 1017.2 |
| 20260506050455 | 21 | 315 | 4.0 | 7.0 | 0.00 | 0.00 | 0.00 | 83 | 1017.2 |
| 20260506050154 | 21 | 323 | 4.0 | 4.0 | 0.00 | 0.00 | 0.00 | 83 | 1017.2 |
| 20260506044654 | 19 | 275 | 0.0 | 1.0 | 0.00 | 0.00 | 0.00 | 85 | 1017.1 |
| 20260506044255 | 19 | 175 | 0.0 | 0.0 | 0.00 | 0.00 | 0.00 | 85 | 1017.2 |
| 20260506044154 | 19 | 175 | 0.0 | 0.0 | 0.00 | 0.00 | 0.00 | 85 | 1017.2 |
| 20260506043654 | 19 | 175 | 0.0 | 0.0 | 0.00 | 0.00 | 0.00 | 85 | 1017.1 |
| 20260506043154 | 18 | 175 | 0.0 | 0.0 | 0.00 | 0.00 | 0.00 | 85 | 1017.1 |
| 20260506042654 | 18 | 175 | 0.0 | 0.0 | 0.00 | 0.00 | 0.00 | 85 | 1017.1 |
| 20260506042154 | 18 | 175 | 0.0 | 0.0 | 0.00 | 0.00 | 0.00 | 84 | 1017.1 |
| 20260506042055 | 18 | 175 | 0.0 | 0.0 | 0.00 | 0.00 | 0.00 | 84 | 1017.1 |
| 20260506041655 | 18 | 175 | 0.0 | 0.0 | 0.00 | 0.00 | 0.00 | 84 | 1017.1 |
| 20260506041154 | 18 | 175 | 0.0 | 0.0 | 0.00 | 0.00 | 0.00 | 84 | 1016.9 |
| 20260506040955 | 18 | 175 | 0.0 | 0.0 | 0.00 | 0.00 | 0.00 | 84 | 1016.9 |
| 20260506040654 | 18 | 175 | 0.0 | 0.0 | 0.00 | 0.00 | 0.00 | 84 | 1016.9 |
| 20260506040154 | 18 | 175 | 0.0 | 0.0 | 0.00 | 0.00 | 0.00 | 84 | 1016.9 |
| 20260506035855 | 18 | 175 | 0.0 | 0.0 | 0.00 | 0.00 | 0.00 | 84 | 1016.8 |
| 20260506035654 | 18 | 175 | 0.0 | 0.0 | 0.00 | 0.00 | 0.00 | 84 | 1016.9 |
| 20260506035154 | 18 | 175 | 0.0 | 1.0 | 0.00 | 0.00 | 0.00 | 85 | 1016.8 |
| 20260506034756 | 17 | 101 | 0.0 | 0.0 | 0.00 | 0.00 | 0.00 | 84 | 1016.8 |
| 20260506034654 | 17 | 101 | 0.0 | 0.0 | 0.00 | 0.00 | 0.00 | 84 | 1016.8 |
| 20260506034154 | 17 | 101 | 0.0 | 0.0 | 0.00 | 0.00 | 0.00 | 84 | 1016.7 |
| 20260506033654 | 17 | 101 | 0.0 | 0.0 | 0.00 | 0.00 | 0.00 | 84 | 1016.7 |
| 20260506033154 | 17 | 101 | 0.0 | 0.0 | 0.00 | 0.00 | 0.00 | 84 | 1016.7 |
| 20260506032654 | 17 | 101 | 0.0 | 0.0 | 0.00 | 0.00 | 0.00 | 84 | 1016.7 |
| 20260506032556 | 17 | 101 | 0.0 | 0.0 | 0.00 | 0.00 | 0.00 | 84 | 1016.7 |
| 20260506032154 | 17 | 101 | 0.0 | 1.0 | 0.00 | 0.00 | 0.00 | 83 | 1016.7 |
| 20260506031654 | 17 | 105 | 0.0 | 2.0 | 0.00 | 0.00 | 0.00 | 83 | 1016.7 |
| 20260506031456 | 17 | 84 | 0.0 | 3.0 | 0.00 | 0.00 | 0.00 | 83 | 1016.7 |
| 20260506031154 | 17 | 120 | 2.0 | 3.0 | 0.00 | 0.00 | 0.00 | 83 | 1016.7 |
| 20260506030654 | 17 | 92 | 0.0 | 0.0 | 0.00 | 0.00 | 0.00 | 83 | 1016.6 |
| 20260506030356 | 17 | 92 | 0.0 | 0.0 | 0.00 | 0.00 | 0.00 | 82 | 1016.6 |
| 20260506030154 | 17 | 92 | 0.0 | 0.0 | 0.00 | 0.00 | 0.00 | 82 | 1016.6 |
| 20260506025654 | 17 | 92 | 0.0 | 3.0 | 0.00 | 0.00 | 0.00 | 82 | 1016.6 |
| 20260506025256 | 17 | 119 | 3.0 | 3.0 | 0.00 | 0.00 | 0.00 | 82 | 1016.5 |
| 20260506025154 | 17 | 125 | 2.0 | 3.0 | 0.00 | 0.00 | 0.00 | 82 | 1016.5 |
| 20260506024654 | 18 | 81 | 0.0 | 0.0 | 0.00 | 0.00 | 0.00 | 82 | 1016.5 |
| 20260506024154 | 18 | 81 | 0.0 | 0.0 | 0.00 | 0.00 | 0.00 | 81 | 1016.6 |
| 20260506023655 | 18 | 81 | 0.0 | 0.0 | 0.00 | 0.00 | 0.00 | 81 | 1016.6 |
| 20260506023154 | 18 | 81 | 0.0 | 2.0 | 0.00 | 0.00 | 0.00 | 81 | 1016.5 |
| 20260506023056 | 19 | 81 | 0.0 | 3.0 | 0.00 | 0.00 | 0.00 | 81 | 1016.6 |
| 20260506022655 | 19 | 125 | 2.0 | 3.0 | 0.00 | 0.00 | 0.00 | 80 | 1016.6 |
| 20260506022155 | 19 | 127 | 2.0 | 3.0 | 0.00 | 0.00 | 0.00 | 80 | 1016.6 |
| 20260506021956 | 19 | 132 | 1.0 | 3.0 | 0.00 | 0.00 | 0.00 | 80 | 1016.6 |
| 20260506021655 | 19 | 132 | 2.0 | 2.0 | 0.00 | 0.00 | 0.00 | 80 | 1016.5 |
| 20260506021155 | 19 | 261 | 0.0 | 0.0 | 0.00 | 0.00 | 0.00 | 81 | 1016.5 |
| 20260506020856 | 19 | 261 | 0.0 | 0.0 | 0.00 | 0.00 | 0.00 | 81 | 1016.5 |
| 20260506020655 | 19 | 261 | 0.0 | 0.0 | 0.00 | 0.00 | 0.00 | 80 | 1016.5 |
| 20260506020155 | 20 | 261 | 0.0 | 0.0 | 0.00 | 0.00 | 0.00 | 80 | 1016.4 |
| 20260506015756 | 20 | 261 | 0.0 | 0.0 | 0.00 | 0.00 | 0.00 | 80 | 1016.4 |
| 20260506015655 | 20 | 261 | 0.0 | 0.0 | 0.00 | 0.00 | 0.00 | 80 | 1016.4 |
| 20260506015155 | 20 | 261 | 0.0 | 0.0 | 0.00 | 0.00 | 0.00 | 80 | 1016.5 |
| 20260506014655 | 20 | 261 | 0.0 | 0.0 | 0.00 | 0.00 | 0.00 | 80 | 1016.5 |
| 20260506014155 | 20 | 261 | 0.0 | 0.0 | 0.00 | 0.00 | 0.00 | 80 | 1016.4 |
| 20260506013655 | 20 | 261 | 0.0 | 0.0 | 0.00 | 0.00 | 0.00 | 81 | 1016.4 |
| 20260506013556 | 20 | 261 | 0.0 | 0.0 | 0.00 | 0.00 | 0.00 | 81 | 1016.4 |
| 20260506013155 | 20 | 261 | 0.0 | 0.0 | 0.00 | 0.00 | 0.00 | 81 | 1016.4 |
| 20260506012655 | 19 | 261 | 0.0 | 0.0 | 0.00 | 0.00 | 0.00 | 82 | 1016.4 |
| 20260506012456 | 19 | 261 | 0.0 | 1.0 | 0.00 | 0.00 | 0.00 | 81 | 1016.3 |
| 20260506012155 | 19 | 319 | 0.0 | 1.0 | 0.00 | 0.00 | 0.00 | 80 | 1016.3 |
| 20260506011655 | 19 | 74 | 0.0 | 0.0 | 0.00 | 0.00 | 0.00 | 79 | 1016.3 |
| 20260506011356 | 19 | 74 | 0.0 | 0.0 | 0.00 | 0.00 | 0.00 | 79 | 1016.3 |
| 20260506011155 | 19 | 74 | 0.0 | 0.0 | 0.00 | 0.00 | 0.00 | 79 | 1016.4 |
| 20260506010655 | 19 | 74 | 0.0 | 0.0 | 0.00 | 0.00 | 0.00 | 79 | 1016.3 |
| 20260506010256 | 20 | 74 | 0.0 | 0.0 | 0.00 | 0.00 | 0.00 | 78 | 1016.3 |
| 20260506010155 | 20 | 74 | 0.0 | 0.0 | 0.00 | 0.00 | 0.00 | 78 | 1016.3 |
| 20260506005655 | 20 | 74 | 0.0 | 2.0 | 0.00 | 0.00 | 0.00 | 78 | 1016.2 |
| 20260506005155 | 20 | 320 | 0.0 | 0.0 | 0.00 | 0.00 | 0.00 | 78 | 1016.3 |
| 20260506004655 | 21 | 320 | 0.0 | 0.0 | 0.00 | 0.00 | 0.00 | 78 | 1016.2 |
| 20260506004155 | 21 | 320 | 0.0 | 1.0 | 0.00 | 0.00 | 0.00 | 78 | 1016.1 |
| 20260506004056 | 21 | 320 | 0.0 | 1.0 | 0.00 | 0.00 | 0.00 | 78 | 1016.2 |
| 20260506003655 | 21 | 112 | 0.0 | 3.0 | 0.00 | 0.00 | 0.00 | 77 | 1016.2 |
| 20260506003155 | 21 | 118 | 0.0 | 2.0 | 0.00 | 0.00 | 0.00 | 77 | 1016.3 |
| 20260506002956 | 21 | 292 | 0.0 | 0.0 | 0.00 | 0.00 | 0.00 | 77 | 1016.3 |
| 20260506002655 | 22 | 292 | 0.0 | 0.0 | 0.00 | 0.00 | 0.00 | 77 | 1016.2 |
| 20260506002155 | 22 | 292 | 0.0 | 0.0 | 0.00 | 0.00 | 0.00 | 78 | 1016.2 |
| 20260506001856 | 22 | 292 | 0.0 | 1.0 | 0.00 | 0.00 | 0.00 | 78 | 1016.2 |
| 20260506001655 | 22 | 292 | 0.0 | 4.0 | 0.00 | 0.00 | 0.00 | 78 | 1016.2 |
| 20260506001155 | 22 | 299 | 3.0 | 4.0 | 0.00 | 0.00 | 0.00 | 78 | 1016.2 |
| 20260506000756 | 22 | 336 | 0.0 | 5.0 | 0.00 | 0.00 | 0.00 | 78 | 1016.2 |
| 20260506000655 | 22 | 344 | 0.0 | 6.0 | 0.00 | 0.00 | 0.00 | 78 | 1016.2 |
| 20260506000155 | 22 | 307 | 6.0 | 6.0 | 0.00 | 0.00 | 0.00 | 77 | 1016.2 |
| 20260505235655 | 22 | 293 | 0.0 | 4.0 | 0.00 | 0.00 | 0.00 | 77 | 1016.3 |
| 20260505235155 | 22 | 303 | 1.0 | 6.0 | 0.00 | 0.00 | 0.00 | 76 | 1016.3 |
| 20260505234655 | 22 | 296 | 2.0 | 4.0 | 0.00 | 0.00 | 0.00 | 76 | 1016.2 |
| 20260505234556 | 22 | 298 | 0.0 | 4.0 | 0.00 | 0.00 | 0.00 | 76 | 1016.3 |
| 20260505234155 | 22 | 319 | 1.0 | 5.0 | 0.00 | 0.00 | 0.00 | 75 | 1016.3 |
| 20260505233655 | 22 | 317 | 1.0 | 1.0 | 0.00 | 0.00 | 0.00 | 75 | 1016.2 |
| 20260505233456 | 22 | 302 | 0.0 | 2.0 | 0.00 | 0.00 | 0.00 | 75 | 1016.2 |
| 20260505233155 | 22 | 316 | 1.0 | 3.0 | 0.00 | 0.00 | 0.00 | 74 | 1016.2 |
| 20260505232655 | 22 | 323 | 3.0 | 5.0 | 0.00 | 0.00 | 0.00 | 74 | 1016.2 |
| 20260505232356 | 22 | 300 | 0.0 | 5.0 | 0.00 | 0.00 | 0.00 | 74 | 1016.2 |
| 20260505232155 | 22 | 291 | 0.0 | 3.0 | 0.00 | 0.00 | 0.00 | 73 | 1016.2 |
| 20260505231655 | 22 | 330 | 2.0 | 3.0 | 0.00 | 0.00 | 0.00 | 73 | 1016.2 |
| 20260505231256 | 22 | 326 | 0.0 | 4.0 | 0.00 | 0.00 | 0.00 | 73 | 1016.2 |
| 20260505231155 | 22 | 326 | 0.0 | 4.0 | 0.00 | 0.00 | 0.00 | 73 | 1016.2 |
| 20260505230655 | 22 | 305 | 2.0 | 4.0 | 0.00 | 0.00 | 0.00 | 73 | 1016.2 |
| 20260505230155 | 22 | 320 | 0.0 | 1.0 | 0.00 | 0.00 | 0.00 | 72 | 1016.2 |
| 20260505225655 | 22 | 307 | 0.0 | 1.0 | 0.00 | 0.00 | 0.00 | 72 | 1016.3 |
| 20260505225155 | 22 | 331 | 0.0 | 0.0 | 0.00 | 0.00 | 0.00 | 70 | 1016.2 |
| 20260505225056 | 22 | 331 | 0.0 | 0.0 | 0.00 | 0.00 | 0.00 | 70 | 1016.2 |
| 20260505224655 | 22 | 331 | 0.0 | 0.0 | 0.00 | 0.00 | 0.00 | 70 | 1016.2 |
| 20260505224155 | 23 | 331 | 0.0 | 0.0 | 0.00 | 0.00 | 0.00 | 69 | 1016.2 |
| 20260505223956 | 23 | 331 | 0.0 | 0.0 | 0.00 | 0.00 | 0.00 | 69 | 1016.2 |
| 20260505223655 | 23 | 331 | 0.0 | 0.0 | 0.00 | 0.00 | 0.00 | 68 | 1016.2 |
| 20260505223155 | 23 | 331 | 0.0 | 0.0 | 0.00 | 0.00 | 0.00 | 68 | 1016.1 |
| 20260505222856 | 24 | 331 | 0.0 | 0.0 | 0.00 | 0.00 | 0.00 | 68 | 1016.1 |
| 20260505222655 | 24 | 331 | 0.0 | 0.0 | 0.00 | 0.00 | 0.00 | 68 | 1016.1 |
| 20260505222155 | 24 | 331 | 0.0 | 0.0 | 0.00 | 0.00 | 0.00 | 68 | 1016.1 |
| 20260505221756 | 24 | 331 | 0.0 | 0.0 | 0.00 | 0.00 | 0.00 | 68 | 1016.2 |
| 20260505221655 | 24 | 331 | 0.0 | 0.0 | 0.00 | 0.00 | 0.00 | 68 | 1016.2 |
| 20260505221155 | 24 | 331 | 0.0 | 0.0 | 0.00 | 0.00 | 0.00 | 67 | 1016.2 |
| 20260505220836 | 24 | 331 | 0.0 | 0.0 | 0.00 | 0.00 | 0.00 | 67 | 1016.2 |
| 20260505220656 | 24 | 331 | 0.0 | 0.0 | 0.00 | 0.00 | 0.00 | 67 | 1016.2 |
| 20260505220155 | 24 | 331 | 0.0 | 0.0 | 0.00 | 0.00 | 0.00 | 67 | 1016.2 |
| 20260505215655 | 25 | 331 | 0.0 | 0.0 | 0.00 | 0.00 | 0.00 | 66 | 1016.2 |
| 20260505215556 | 25 | 331 | 0.0 | 0.0 | 0.00 | 0.00 | 0.00 | 66 | 1016.2 |
| 20260505215155 | 25 | 331 | 0.0 | 0.0 | 0.00 | 0.00 | 0.00 | 66 | 1016.2 |
| 20260505214655 | 25 | 331 | 0.0 | 2.0 | 0.00 | 0.00 | 0.00 | 66 | 1016.2 |
| 20260505214456 | 25 | 315 | 0.0 | 2.0 | 0.00 | 0.00 | 0.00 | 66 | 1016.2 |
| 20260505214155 | 25 | 257 | 0.0 | 4.0 | 0.00 | 0.00 | 0.00 | 66 | 1016.1 |
| 20260505213655 | 25 | 322 | 0.0 | 7.0 | 0.00 | 0.00 | 0.00 | 66 | 1016.1 |
| 20260505213356 | 25 | 344 | 1.0 | 6.0 | 0.00 | 0.00 | 0.00 | 67 | 1016.1 |
| 20260505213155 | 25 | 317 | 4.0 | 4.0 | 0.00 | 0.00 | 0.00 | 67 | 1016.1 |
| 20260505212655 | 25 | 345 | 0.0 | 3.0 | 0.00 | 0.00 | 0.00 | 68 | 1015.9 |
| 20260505212256 | 25 | 330 | 2.0 | 2.0 | 0.00 | 0.00 | 0.00 | 67 | 1016.1 |
| 20260505212155 | 25 | 313 | 0.0 | 0.0 | 0.00 | 0.00 | 0.00 | 67 | 1015.9 |
| 20260505211655 | 25 | 313 | 0.0 | 0.0 | 0.00 | 0.00 | 0.00 | 66 | 1015.9 |
| 20260505211155 | 25 | 313 | 0.0 | 0.0 | 0.00 | 0.00 | 0.00 | 66 | 1015.9 |
| 20260505210655 | 25 | 313 | 0.0 | 3.0 | 0.00 | 0.00 | 0.00 | 66 | 1015.9 |
| 20260505210155 | 26 | 300 | 0.0 | 4.0 | 0.00 | 0.00 | 0.00 | 66 | 1015.8 |
| 20260505210056 | 26 | 305 | 0.0 | 5.0 | 0.00 | 0.00 | 0.00 | 66 | 1015.8 |
| 20260505205655 | 26 | 302 | 2.0 | 7.0 | 0.00 | 0.00 | 0.00 | 66 | 1015.8 |
| 20260505205155 | 26 | 295 | 6.0 | 6.0 | 0.00 | 0.00 | 0.00 | 66 | 1015.7 |
| 20260505204956 | 26 | 281 | 1.0 | 5.0 | 0.00 | 0.00 | 0.00 | 66 | 1015.7 |
| 20260505204655 | 26 | 292 | 0.0 | 6.0 | 0.00 | 0.00 | 0.00 | 65 | 1015.8 |
| 20260505204155 | 26 | 295 | 6.0 | 7.0 | 0.00 | 0.00 | 0.00 | 65 | 1015.8 |
| 20260505203856 | 26 | 292 | 0.0 | 0.0 | 0.00 | 0.00 | 0.00 | 65 | 1015.8 |
| 20260505203655 | 26 | 292 | 0.0 | 0.0 | 0.00 | 0.00 | 0.00 | 65 | 1015.7 |
| 20260505203155 | 27 | 292 | 0.0 | 0.0 | 0.00 | 0.00 | 0.00 | 65 | 1015.8 |
| 20260505202756 | 27 | 292 | 0.0 | 5.0 | 0.00 | 0.00 | 0.00 | 65 | 1015.7 |
| 20260505202655 | 27 | 292 | 0.0 | 5.0 | 0.00 | 0.00 | 0.00 | 65 | 1015.7 |
| 20260505202155 | 27 | 258 | 3.0 | 4.0 | 0.00 | 0.00 | 0.00 | 65 | 1015.6 |
| 20260505201655 | 27 | 317 | 2.0 | 4.0 | 0.00 | 0.00 | 0.00 | 65 | 1015.6 |
| 20260505201155 | 27 | 329 | 1.0 | 4.0 | 0.00 | 0.00 | 0.00 | 65 | 1015.6 |
| 20260505200655 | 27 | 320 | 1.0 | 5.0 | 0.00 | 0.00 | 0.00 | 65 | 1015.5 |
| 20260505200556 | 27 | 274 | 2.0 | 5.0 | 0.00 | 0.00 | 0.00 | 65 | 1015.6 |
| 20260505200155 | 27 | 306 | 1.0 | 6.0 | 0.00 | 0.00 | 0.00 | 65 | 1015.5 |
| 20260505195655 | 27 | 286 | 1.0 | 7.0 | 0.00 | 0.00 | 0.00 | 64 | 1015.4 |
| 20260505195456 | 27 | 324 | 3.0 | 10.0 | 0.00 | 0.00 | 0.00 | 64 | 1015.4 |
| 20260505195155 | 28 | 326 | 3.0 | 10.0 | 0.00 | 0.00 | 0.00 | 64 | 1015.4 |
| 20260505194655 | 28 | 322 | 2.0 | 7.0 | 0.00 | 0.00 | 0.00 | 63 | 1015.3 |
| 20260505194356 | 28 | 329 | 2.0 | 7.0 | 0.00 | 0.00 | 0.00 | 63 | 1015.3 |
| 20260505194155 | 28 | 300 | 3.0 | 7.0 | 0.00 | 0.00 | 0.00 | 63 | 1015.2 |
| 20260505193655 | 28 | 285 | 4.0 | 8.0 | 0.00 | 0.00 | 0.00 | 62 | 1015.2 |
| 20260505193257 | 28 | 307 | 3.0 | 8.0 | 0.00 | 0.00 | 0.00 | 62 | 1015.2 |
| 20260505193155 | 28 | 307 | 5.0 | 8.0 | 0.00 | 0.00 | 0.00 | 62 | 1015.2 |
| 20260505192655 | 29 | 298 | 3.0 | 6.0 | 0.00 | 0.00 | 0.00 | 63 | 1015.2 |
| 20260505192155 | 29 | 320 | 2.0 | 7.0 | 0.00 | 0.00 | 0.00 | 62 | 1015.2 |
| 20260505191655 | 29 | 299 | 3.0 | 5.0 | 0.00 | 0.00 | 0.00 | 62 | 1015.0 |
| 20260505191155 | 30 | 299 | 4.0 | 8.0 | 0.00 | 0.00 | 0.00 | 62 | 1015.0 |
| 20260505191056 | 30 | 281 | 6.0 | 8.0 | 0.00 | 0.00 | 0.00 | 61 | 1015.0 |
| 20260505190655 | 30 | 299 | 3.0 | 8.0 | 0.00 | 0.00 | 0.00 | 61 | 1014.9 |
| 20260505190155 | 31 | 313 | 3.0 | 10.0 | 0.00 | 0.00 | 0.00 | 58 | 1014.9 |
| 20260505185956 | 32 | 300 | 6.0 | 10.0 | 0.00 | 0.00 | 0.00 | 58 | 1014.9 |
| 20260505185655 | 32 | 289 | 6.0 | 9.0 | 0.00 | 0.00 | 0.00 | 59 | 1014.8 |
| 20260505185155 | 31 | 291 | 5.0 | 9.0 | 0.00 | 0.00 | 0.00 | 59 | 1014.7 |
| 20260505184856 | 32 | 299 | 6.0 | 10.0 | 0.00 | 0.00 | 0.00 | 57 | 1014.8 |
| 20260505184655 | 32 | 302 | 7.0 | 10.0 | 0.00 | 0.00 | 0.00 | 58 | 1014.7 |
| 20260505184155 | 32 | 306 | 1.0 | 7.0 | 0.00 | 0.00 | 0.00 | 61 | 1014.7 |
| 20260505183756 | 31 | 326 | 5.0 | 7.0 | 0.00 | 0.00 | 0.00 | 62 | 1014.7 |
| 20260505183655 | 31 | 324 | 3.0 | 7.0 | 0.00 | 0.00 | 0.00 | 63 | 1014.7 |
| 20260505183155 | 31 | 309 | 3.0 | 6.0 | 0.00 | 0.00 | 0.00 | 64 | 1014.7 |
| 20260505182655 | 30 | 298 | 2.0 | 5.0 | 0.00 | 0.00 | 0.00 | 65 | 1014.7 |
| 20260505182155 | 30 | 298 | 0.0 | 7.0 | 0.00 | 0.00 | 0.00 | 65 | 1014.7 |
| 20260505181655 | 30 | 323 | 5.0 | 7.0 | 0.00 | 0.00 | 0.00 | 64 | 1014.6 |
| 20260505181556 | 30 | 278 | 5.0 | 8.0 | 0.00 | 0.00 | 0.00 | 63 | 1014.7 |
| 20260505181155 | 31 | 319 | 2.0 | 8.0 | 0.00 | 0.00 | 0.00 | 62 | 1014.7 |
| 20260505180655 | 31 | 293 | 1.0 | 6.0 | 0.00 | 0.00 | 0.00 | 61 | 1014.7 |
| 20260505180457 | 31 | 320 | 2.0 | 6.0 | 0.00 | 0.00 | 0.00 | 61 | 1014.7 |
| 20260505180155 | 31 | 286 | 4.0 | 9.0 | 0.00 | 0.00 | 0.00 | 61 | 1014.6 |
| 20260505175655 | 32 | 296 | 2.0 | 7.0 | 0.00 | 0.00 | 0.00 | 59 | 1014.6 |
| 20260505175357 | 32 | 322 | 5.0 | 5.0 | 0.00 | 0.00 | 0.00 | 59 | 1014.6 |
| 20260505175155 | 32 | 307 | 0.0 | 6.0 | 0.00 | 0.00 | 0.00 | 58 | 1014.6 |
| 20260505174655 | 32 | 307 | 5.0 | 10.0 | 0.00 | 0.00 | 0.00 | 57 | 1014.5 |
| 20260505174257 | 32 | 307 | 3.0 | 9.0 | 0.00 | 0.00 | 0.00 | 55 | 1014.5 |
| 20260505174156 | 32 | 324 | 3.0 | 10.0 | 0.00 | 0.00 | 0.00 | 55 | 1014.6 |
| 20260505173655 | 32 | 326 | 5.0 | 10.0 | 0.00 | 0.00 | 0.00 | 52 | 1014.6 |
| 20260505173156 | 33 | 255 | 8.0 | 11.0 | 0.00 | 0.00 | 0.00 | 52 | 1014.6 |
| 20260505172655 | 33 | 292 | 6.0 | 12.0 | 0.00 | 0.00 | 0.00 | 51 | 1014.6 |
| 20260505172156 | 33 | 309 | 4.0 | 11.0 | 0.00 | 0.00 | 0.00 | 51 | 1014.6 |
| 20260505172057 | 33 | 300 | 3.0 | 14.0 | 0.00 | 0.00 | 0.00 | 51 | 1014.6 |
| 20260505171656 | 33 | 300 | 5.0 | 14.0 | 0.00 | 0.00 | 0.00 | 48 | 1014.6 |
| 20260505171156 | 34 | 289 | 3.0 | 11.0 | 0.00 | 0.00 | 0.00 | 51 | 1014.6 |
| 20260505170957 | 33 | 299 | 3.0 | 7.0 | 0.00 | 0.00 | 0.00 | 51 | 1014.5 |
| 20260505170656 | 33 | 270 | 5.0 | 11.0 | 0.00 | 0.00 | 0.00 | 50 | 1014.6 |
| 20260505170156 | 33 | 310 | 2.0 | 9.0 | 0.00 | 0.00 | 0.00 | 50 | 1014.5 |
| 20260505165858 | 33 | 300 | 3.0 | 11.0 | 0.00 | 0.00 | 0.00 | 49 | 1014.5 |
| 20260505165656 | 33 | 275 | 4.0 | 11.0 | 0.00 | 0.00 | 0.00 | 48 | 1014.6 |
| 20260505165156 | 33 | 312 | 0.0 | 7.0 | 0.00 | 0.00 | 0.00 | 52 | 1014.5 |
| 20260505164757 | 32 | 8 | 0.0 | 10.0 | 0.00 | 0.00 | 0.00 | 52 | 1014.6 |
| 20260505164656 | 32 | 319 | 1.0 | 10.0 | 0.00 | 0.00 | 0.00 | 52 | 1014.7 |
| 20260505164156 | 32 | 316 | 6.0 | 8.0 | 0.00 | 0.00 | 0.00 | 52 | 1014.6 |
| 20260505163656 | 32 | 284 | 2.0 | 11.0 | 0.00 | 0.00 | 0.00 | 51 | 1014.7 |
| 20260505163156 | 32 | 307 | 2.0 | 9.0 | 0.00 | 0.00 | 0.00 | 50 | 1014.7 |
| 20260505162656 | 32 | 313 | 3.0 | 8.0 | 0.00 | 0.00 | 0.00 | 49 | 1014.5 |
| 20260505162557 | 32 | 312 | 3.0 | 8.0 | 0.00 | 0.00 | 0.00 | 50 | 1014.7 |
| 20260505162156 | 32 | 268 | 0.0 | 11.0 | 0.00 | 0.00 | 0.00 | 50 | 1014.7 |
| 20260505161656 | 32 | 330 | 1.0 | 8.0 | 0.00 | 0.00 | 0.00 | 47 | 1014.7 |
| 20260505161457 | 32 | 305 | 5.0 | 8.0 | 0.00 | 0.00 | 0.00 | 49 | 1014.7 |
| 20260505161156 | 32 | 303 | 2.0 | 9.0 | 0.00 | 0.00 | 0.00 | 48 | 1014.6 |
| 20260505160656 | 32 | 306 | 3.0 | 11.0 | 0.00 | 0.00 | 0.00 | 49 | 1014.6 |
| 20260505160357 | 33 | 322 | 6.0 | 11.0 | 0.00 | 0.00 | 0.00 | 48 | 1014.6 |
| 20260505160156 | 33 | 300 | 7.0 | 11.0 | 0.00 | 0.00 | 0.00 | 49 | 1014.6 |
| 20260505153156 | 36 | 313 | 3.0 | 10.0 | 0.00 | 0.00 | 0.00 | 45 | 1014.3 |
| 20260505153057 | 36 | 317 | 6.0 | 10.0 | 0.00 | 0.00 | 0.00 | 47 | 1014.4 |
| 20260505152656 | 36 | 336 | 4.0 | 14.0 | 0.00 | 0.00 | 0.00 | 47 | 1014.5 |
| 20260505152156 | 35 | 282 | 6.0 | 13.0 | 0.00 | 0.00 | 0.00 | 46 | 1014.5 |
| 20260505151957 | 35 | 320 | 5.0 | 13.0 | 0.00 | 0.00 | 0.00 | 46 | 1014.5 |
| 20260505151656 | 35 | 336 | 3.0 | 12.0 | 0.00 | 0.00 | 0.00 | 47 | 1014.4 |
| 20260505151156 | 35 | 284 | 10.0 | 13.0 | 0.00 | 0.00 | 0.00 | 45 | 1014.4 |
| 20260505150857 | 35 | 258 | 5.0 | 10.0 | 0.00 | 0.00 | 0.00 | 48 | 1014.4 |
| 20260505150656 | 34 | 270 | 4.0 | 9.0 | 0.00 | 0.00 | 0.00 | 51 | 1014.4 |
| 20260505150156 | 33 | 333 | 0.0 | 8.0 | 0.00 | 0.00 | 0.00 | 51 | 1014.3 |
| 20260505140257 | 34 | 300 | 3.0 | 8.0 | 0.00 | 0.00 | 0.00 | 46 | 1014.1 |
| 20260505140156 | 34 | 288 | 4.0 | 8.0 | 0.00 | 0.00 | 0.00 | 44 | 1014.3 |
| 20260505130156 | 33 | 299 | 3.0 | 10.0 | 0.00 | 0.00 | 0.00 | 42 | 1014.3 |
| 20260505124656 | 34 | 316 | 1.0 | 13.0 | 0.00 | 0.00 | 0.00 | 42 | 1014.1 |
| 20260505124557 | 34 | 317 | 0.0 | 13.0 | 0.00 | 0.00 | 0.00 | 41 | 1014.1 |
| 20260505124156 | 34 | 315 | 1.0 | 17.0 | 0.00 | 0.00 | 0.00 | 40 | 1014.1 |
| 20260505123656 | 34 | 337 | 6.0 | 13.0 | 0.00 | 0.00 | 0.00 | 42 | 1014.1 |
| 20260505123457 | 34 | 271 | 4.0 | 13.0 | 0.00 | 0.00 | 0.00 | 44 | 1014.1 |
| 20260505123156 | 33 | 271 | 2.0 | 15.0 | 0.00 | 0.00 | 0.00 | 41 | 1014.0 |
| 20260505122656 | 34 | 324 | 6.0 | 16.0 | 0.00 | 0.00 | 0.00 | 41 | 1014.0 |
| 20260505122357 | 34 | 316 | 9.0 | 16.0 | 0.00 | 0.00 | 0.00 | 43 | 1014.1 |
| 20260505122156 | 34 | 309 | 14.0 | 17.0 | 0.00 | 0.00 | 0.00 | 41 | 1014.1 |
| 20260505121656 | 34 | 309 | 0.0 | 15.0 | 0.00 | 0.00 | 0.00 | 42 | 1014.0 |
| 20260505121257 | 34 | 291 | 6.0 | 12.0 | 0.00 | 0.00 | 0.00 | 42 | 1014.0 |
| 20260505121156 | 34 | 293 | 9.0 | 12.0 | 0.00 | 0.00 | 0.00 | 44 | 1014.0 |
| 20260505120656 | 33 | 307 | 3.0 | 11.0 | 0.00 | 0.00 | 0.00 | 47 | 1013.9 |
| 20260505120156 | 33 | 288 | 6.0 | 13.0 | 0.00 | 0.00 | 0.00 | 44 | 1014.0 |
| 20260505115656 | 33 | 278 | 7.0 | 11.0 | 0.00 | 0.00 | 0.00 | 44 | 1014.0 |
| 20260505115156 | 33 | 253 | 8.0 | 12.0 | 0.00 | 0.00 | 0.00 | 45 | 1013.8 |
| 20260505115057 | 33 | 300 | 7.0 | 12.0 | 0.00 | 0.00 | 0.00 | 46 | 1013.9 |
| 20260505114656 | 34 | 316 | 3.0 | 11.0 | 0.00 | 0.00 | 0.00 | 40 | 1014.0 |
| 20260505114156 | 34 | 292 | 3.0 | 7.0 | 0.00 | 0.00 | 0.00 | 46 | 1013.8 |
| 20260505113957 | 34 | 334 | 4.0 | 7.0 | 0.00 | 0.00 | 0.00 | 46 | 1013.9 |
| 20260505113656 | 33 | 264 | 4.0 | 9.0 | 0.00 | 0.00 | 0.00 | 46 | 1013.9 |
| 20260505113156 | 34 | 299 | 2.0 | 16.0 | 0.00 | 0.00 | 0.00 | 44 | 1013.9 |
| 20260505112857 | 34 | 295 | 8.0 | 16.0 | 0.00 | 0.00 | 0.00 | 43 | 1013.9 |
| 20260505112656 | 34 | 288 | 3.0 | 7.0 | 0.00 | 0.00 | 0.00 | 45 | 1013.9 |
| 20260505112156 | 34 | 310 | 6.0 | 16.0 | 0.00 | 0.00 | 0.00 | 43 | 1014.0 |
| 20260505111757 | 34 | 300 | 7.0 | 13.0 | 0.00 | 0.00 | 0.00 | 46 | 1013.9 |
| 20260505111656 | 34 | 289 | 2.0 | 11.0 | 0.00 | 0.00 | 0.00 | 44 | 1013.9 |
| 20260505111156 | 33 | 286 | 6.0 | 15.0 | 0.00 | 0.00 | 0.00 | 46 | 1013.9 |
| 20260505110656 | 33 | 289 | 5.0 | 12.0 | 0.00 | 0.00 | 0.00 | 48 | 1013.9 |
| 20260505110156 | 32 | 303 | 5.0 | 11.0 | 0.00 | 0.00 | 0.00 | 45 | 1013.9 |
| 20260505102156 | 32 | 279 | 9.0 | 12.0 | 0.00 | 0.00 | 0.00 | 48 | 1013.7 |
| 20260505101656 | 31 | 307 | 3.0 | 10.0 | 0.00 | 0.00 | 0.00 | 49 | 1013.8 |
| 20260505101156 | 31 | 306 | 9.0 | 12.0 | 0.00 | 0.00 | 0.00 | 49 | 1013.8 |
| 20260505100656 | 32 | 306 | 12.0 | 12.0 | 0.00 | 0.00 | 0.00 | 47 | 1013.7 |
| 20260505100156 | 32 | 261 | 2.0 | 11.0 | 0.00 | 0.00 | 0.00 | 47 | 1013.6 |
| 20260505100057 | 32 | 303 | 6.0 | 11.0 | 0.00 | 0.00 | 0.00 | 47 | 1013.7 |
| 20260505095656 | 32 | 286 | 0.0 | 8.0 | 0.00 | 0.00 | 0.00 | 50 | 1013.6 |
| 20260505095156 | 31 | 293 | 3.0 | 16.0 | 0.00 | 0.00 | 0.00 | 48 | 1013.6 |
| 20260505094957 | 32 | 315 | 3.0 | 16.0 | 0.00 | 0.00 | 0.00 | 49 | 1013.5 |
| 20260505094656 | 32 | 319 | 4.0 | 13.0 | 0.00 | 0.00 | 0.00 | 46 | 1013.6 |
| 20260505094156 | 31 | 350 | 0.0 | 11.0 | 0.00 | 0.00 | 0.00 | 49 | 1013.6 |
| 20260505093857 | 31 | 295 | 2.0 | 12.0 | 0.00 | 0.00 | 0.00 | 49 | 1013.6 |
| 20260505093656 | 31 | 307 | 5.0 | 12.0 | 0.00 | 0.00 | 0.00 | 48 | 1013.6 |
| 20260505093156 | 31 | 333 | 4.0 | 9.0 | 0.00 | 0.00 | 0.00 | 48 | 1013.5 |
| 20260505092757 | 31 | 286 | 0.0 | 13.0 | 0.00 | 0.00 | 0.00 | 47 | 1013.6 |
| 20260505092656 | 31 | 358 | 2.0 | 17.0 | 0.00 | 0.00 | 0.00 | 45 | 1013.6 |
| 20260505092156 | 32 | 309 | 12.0 | 15.0 | 0.00 | 0.00 | 0.00 | 47 | 1013.6 |
| 20260505091656 | 31 | 340 | 6.0 | 12.0 | 0.00 | 0.00 | 0.00 | 46 | 1013.7 |
| 20260505091156 | 32 | 322 | 4.0 | 9.0 | 0.00 | 0.00 | 0.00 | 48 | 1013.6 |
| 20260505090656 | 32 | 330 | 3.0 | 10.0 | 0.00 | 0.00 | 0.00 | 47 | 1013.5 |
| 20260505090557 | 31 | 307 | 8.0 | 10.0 | 0.00 | 0.00 | 0.00 | 51 | 1013.5 |
| 20260505090156 | 31 | 344 | 0.0 | 8.0 | 0.00 | 0.00 | 0.00 | 50 | 1013.5 |
| 20260505085656 | 31 | 299 | 1.0 | 11.0 | 0.00 | 0.00 | 0.00 | 52 | 1013.5 |
| 20260505085458 | 31 | 300 | 11.0 | 11.0 | 0.00 | 0.00 | 0.00 | 52 | 1013.5 |
| 20260505085156 | 31 | 309 | 6.0 | 8.0 | 0.00 | 0.00 | 0.00 | 50 | 1013.5 |
| 20260505084656 | 30 | 316 | 7.0 | 11.0 | 0.00 | 0.00 | 0.00 | 51 | 1013.5 |
| 20260505084358 | 30 | 330 | 4.0 | 10.0 | 0.00 | 0.00 | 0.00 | 54 | 1013.5 |
| 20260505084156 | 30 | 307 | 4.0 | 10.0 | 0.00 | 0.00 | 0.00 | 53 | 1013.5 |
| 20260505083656 | 30 | 313 | 5.0 | 10.0 | 0.00 | 0.00 | 0.00 | 52 | 1013.4 |
| 20260505083257 | 30 | 330 | 6.0 | 11.0 | 0.00 | 0.00 | 0.00 | 54 | 1013.4 |
| 20260505083156 | 29 | 289 | 4.0 | 11.0 | 0.00 | 0.00 | 0.00 | 54 | 1013.4 |
| 20260505082656 | 29 | 295 | 4.0 | 12.0 | 0.00 | 0.00 | 0.00 | 53 | 1013.4 |
| 20260505082156 | 29 | 258 | 6.0 | 12.0 | 0.00 | 0.00 | 0.00 | 54 | 1013.4 |
| 20260505081656 | 29 | 317 | 8.0 | 14.0 | 0.00 | 0.00 | 0.00 | 55 | 1013.4 |
| 20260505081157 | 29 | 324 | 9.0 | 16.0 | 0.00 | 0.00 | 0.00 | 54 | 1013.4 |
| 20260505081058 | 29 | 306 | 14.0 | 15.0 | 0.00 | 0.00 | 0.00 | 54 | 1013.4 |
| 20260505080656 | 29 | 316 | 3.0 | 8.0 | 0.00 | 0.00 | 0.00 | 57 | 1013.4 |